Regional Weather Roundup
Issued by NWS Spokane, WA

Home | Current Version | Previous Version | Text Only | Print | Product List | Glossary On
Versions: 1 2 3 4 5 6 7 8 9 10 11 12 13 14 15 16 17 18 19 20 21 22 23 24 25 26 27 28 29 30 31 32 33 34 35 36 37 38 39 40 41 42 43 44 45 46 47 48 49 50
518
NZUS01 KOTX 222125
RWROTX

Eastern Washington/Northern Idaho Roundup
National Weather Service, Spokane WA
100 PM PST SUN JAN 22 2017

Note: "fair" indicated few or no clouds below 12,000 feet with no
significant weather and/or obstructions to visibility.

...Northeast Washington and Northern Idaho Panhandle...

CITY           SKY/WX    TMP DP  RH WIND       PRES   REMARKS
Spokane Intl   CLOUDY    39  30  70 NE8       29.56F
Spokane Downto CLOUDY    40  32  73 E9        29.57F
Coeur d Alene  PTSUNNY   38  32  79 N13       29.58F
Deer Park      PTSUNNY   40  31  70 NE13      29.58F
Sandpoint      MOSUNNY   41  32  70 NE15      29.61F
Bonners Ferry  FAIR      36  32  87 N7        29.65F

...Southeast Washington and southern Idaho Panhandle...

CITY           SKY/WX    TMP DP  RH WIND       PRES   REMARKS
Walla Walla    CLOUDY    41  31  67 N12       29.51F
Pullman/Moscow LGT SNOW  34  32  92 E10       29.59F FOG     WCI  26
Lewiston       CLOUDY    36  30  79 NE9       29.60F
Lowell           N/A     35  31  85 N3        29.65F
Grangeville    CLOUDY    32  28  86 W5        29.56F WCI  27

...Columbia Basin...

CITY           SKY/WX    TMP DP  RH WIND       PRES   REMARKS
Ephrata        LGT SNOW  33  29  85 N7        29.56F FOG     WCI  27
Moses Lake     LGT RAIN  36  33  89 NE6       29.57F
Pasco          CLOUDY    34 N/A N/A W8        29.56F HAZE    WCI  27
Richland       CLOUDY    36  36 100 W8        29.58S
Hermiston      CLOUDY    39  37  92 SW5       29.52R
Pendleton      LGT RAIN  47  31  53 S14       29.49S

...East Slopes Cascades...

CITY           SKY/WX    TMP DP  RH WIND       PRES   REMARKS
The Dalles     CLOUDY    37  35  92 NE5       29.59S FOG
Yakima         FLURRIES  35  34  96 NW3       29.56F
Ellensburg     LGT SNOW  35  32  88 N3        29.54S FOG
Stampede Pass  SNOW      31  30  96 CALM      29.47S VSB 1/4
Wenatchee      LGT SNOW  32  32 100 CALM      29.57S VSB 3/4
Omak           CLOUDY    35  32  88 NW3       29.60F FOG
Sunnyside      LGT RAIN  31  31 100 CALM      29.58S

...Southern British Columbia...

CITY           SKY/WX    TMP DP  RH WIND       PRES   REMARKS
Penticton      CLOUDY    37  34  87 N3        29.62F
Castlegar      MOSUNNY   36  32  87 N8        29.67F
Cranbrook      FLURRIES  28  25  86 N2        29.73F
Osoyoos          N/A     36  34  93 S2          N/A
Creston          N/A     36  34  93 W3          N/A

...Western Montana...

CITY           SKY/WX    TMP DP  RH WIND       PRES   REMARKS
Kalispell      PTCLDY    34  26  72 CALM      29.68F
Missoula       MOSUNNY   24  20  84 NE3       29.66F

...Neighboring Cities...

CITY           SKY/WX    TMP DP  RH WIND       PRES   REMARKS
Seattle        CLOUDY    45  39  79 SE7       29.55R
Portland       PTSUNNY   44  39  82 SE12      29.55F
Boise          CLOUDY    39  29  67 SE17      29.61S
Great Falls    SUNNY     34  24  67 E7        29.73F WCI  28
Calgary        CLOUDY    23  21  93 E7        29.77F FOG     WCI  15



USA.gov is the U.S. government's official web portal to all federal, state and local government web resources and services.